Regional Weather Roundup
Issued by NWS Charleston, SC

Current Version | Previous Version | Graphics & Text | Print | Product List | Glossary On
Versions: 1 2 3 4 5 6 7 8 9 10 11 12 13 14 15 16 17 18 19 20 21 22 23 24 25 26 27 28 29 30 31 32 33 34 35 36 37 38 39 40 41 42 43 44 45 46 47 48 49 50
000
ASUS42 KCHS 200325
RWRCHS

REGIONAL WEATHER ROUNDUP
NATIONAL WEATHER SERVICE CHARLESTON SC
1100 PM EDT FRI SEP 19 2014

NOTE: "FAIR" INDICATES FEW OR NO CLOUDS BELOW 12,000 FEET WITH NO
SIGNIFICANT WEATHER AND/OR OBSTRUCTIONS TO VISIBILITY.

NOT ALL STATIONS ARE QUALITY CONTROLLED BY THE NATIONAL
WEATHER SERVICE. USE DATA WITH CAUTION...ESPECIALLY
DEWPOINT OBSERVATIONS.

SCZ027-030-031-034>040-042>050-200400-
...SOUTH CAROLINA...

CITY           SKY/WX    TMP DP  RH WIND       PRES   REMARKS
N CHARLESTON   CLOUDY    72  67  84 E10G17    30.11S
WATERFRONT PRK   N/A     73 N/A N/A NE17G23     N/A
FORT JOHNSON   NOT AVBL
MOUNT PLEASANT LGT RAIN  72  70  94 E5        30.11F
JOHNS ISLAND   DRIZZLE   72  72 100 NE14G23   30.09F
PINOPOLIS        N/A     73  68  83 E12       30.05R
MONCKS CORNER    N/A     70  70 100 NE3       30.12F
SUMMERVILLE    FAIR      70  70 100 NE5       30.12F
BEAUFORT MCAS  LGT RAIN  73  68  84 NW6       30.10R
BEAUFORT ARPT  DRIZZLE   72  72 100 N9        30.08F
HILTON HEAD IS CLOUDY    73  72  94 N10G16    30.08F
GEORGETOWN     NOT AVBL
WALTERBORO     PTCLDY    72 N/A N/A NE5       30.12S
ORANGEBURG     CLEAR     71  66  84 NE7       30.14R
BARNWELL       FAIR      70  66  88 NE8       30.13S
AIKEN          FAIR      66  66 100 NE5       30.18R
MANNING        FAIR      70 N/A N/A CALM      30.14S
KINGSTREE      NOT AVBL
COLUMBIA       CLEAR     73  64  73 E9        30.15R
SUMTER         CLEAR     68  64  84 E6        30.15R
FLORENCE       CLEAR     70  64  81 E8        30.16S
MYRTLE BEACH   CLOUDY    73  64  73 NE15G22   30.14R
N MYRTLE BEACH CLOUDY    73  65  75 NE12      30.14R

$$

GAZ063-065-086>088-099>101-113>116-118-119-134-136>141-150-200400-
...GEORGIA...

CITY           SKY/WX    TMP DP  RH WIND       PRES   REMARKS
SAVANNAH ARPT  CLOUDY    73  67  81 NE9       30.08R
HUNTER AAF     CLOUDY    72  70  95 NE6       30.05S
FORT STEWART   CLOUDY    71  68  90 N2        30.06F
STATESBORO     NOT AVBL
SYLVANIA       CLEAR     72  70  93 E3        30.11S
CLAXTON        FAIR      72  72 100 NE5       30.08F
THOMSON        PTCLDY    69  69 100 NE3       30.18R
AUGUSTA-BUSH   CLEAR     68  65  90 NE3       30.12R
AUGUSTA-DANIEL CLEAR     71  66  84 NE9       30.14R
SWAINSBORO     FAIR      72  72 100 NE5       30.11R
VIDALIA        PTCLDY    70  70 100 NE9       30.09S
ALMA           PTCLDY    72  69  90 VRB3      30.05S
WAYCROSS       MOCLDY    74  73  95 NE7       30.04S
JESUP          FAIR      73  72  94 E6        30.06S
BRUNSWICK      CLOUDY    73  70  88 N7        30.05R
SAINT SIMONS   CLOUDY    77  70  79 E10       30.03R

$$

SCZ027-028-034-036>038-045-046-048>050-GAZ119-141-200400-
...LAKE AND SUPPLEMENTAL COASTAL OBSERVATIONS...

STATION/POSITION TIME  TEMP    WIND        PRES    WAVE   SWELL
                       AIR SEA DIR/SP/G            HT/PER HT/PER/DIR
                 (UTC) (F)     (DEG/KT/KT) (MB)    (FT/S) (FT/S/D)
UPR LAKE MARION  NOT AVBL
WINYAH BAY       0300   79      70/ 19     1019.0S
LAKE MURRAY      0300   71      40/  3/  5 1020.7S
ACE BASIN NERRS  0300   70      40/  1     1019.0S
FORT PULASKI     0300   76      30/ 13/ 16 1018.2S
SAPELO ISLAND    0300   78      70/  5     1017.0S

$$

ANZ835-935-AMZ111-154-330-350-352-354-374-450-454-472-200400-
...C-MAN AND BUOY OBSERVATIONS...

STATION/POSITION TIME  TEMP    WIND        PRES    WAVE   SWELL
                       AIR SEA DIR/SP/G            HT/PER HT/PER/DIR
                 (UTC) (F)     (DEG/KT/KT) (MB)    (FT/S) (FT/S/D)
FOLLY BEACH CMAN 0300   74      20/ 19/ 22 1019.3S
BUOY 41004       0300   78 82   70/ 23/ 29 1017.5R   6/ 6   2/10
BUOY 41008       0300   81 84   70/ 16/ 19 1016.6R   5/ 6   2/ 40/ 9
5E ST. MARYS GA  0300      84                N/A     3/ 4
FRYING PAN BUOY  NOT AVBL
BUOY 41025       0300   76      70/ 17/ 21 1021.8F   6/ 7   2/ 50/10
CAPE LOOKOUT NC  0300   74      40/ 20/ 24 1021.9S
BUOY 41002       0205   80 82   70/ 23/ 27 1018.1F   7/ 8   2/ 60/11
BUOY 41010       0300   83 85   70/ 16/ 17 1014.7S   4/ 6   2/ 30/10
BUOY 41012       NOT AVBL
ST AUGUSTINE FL  0300   79      90/ 14/ 15 1016.6R
CAPERS NEARSHORE 0200   78      90/ 17/ 21   N/A
FRIPP NEARSHORE  NOT AVBL


$$



USA.gov is the U.S. government's official web portal to all federal, state and local government web resources and services.